| time (UTC) | temp C | wind direction | speed KPH | gust KPH | rain 1hr cm | rain 24hr cm | rain mn cm | humidity % | barometer mb |
| 20260506004904 | 27 | 170 | 9.7 | 25.7 | 0.00 | 0.00 | 0.00 | 54 | 1003.1 |
| 20260506004404 | 27 | 178 | 8.0 | 16.1 | 0.00 | 0.00 | 0.00 | 54 | 1003.2 |
| 20260506003904 | 27 | 158 | 9.7 | 19.3 | 0.00 | 0.00 | 0.00 | 53 | 1003.0 |
| 20260506003404 | 27 | 158 | 9.7 | 24.1 | 0.00 | 0.00 | 0.00 | 53 | 1002.7 |
| 20260506002904 | 27 | 144 | 9.7 | 22.5 | 0.00 | 0.00 | 0.00 | 53 | 1002.5 |
| 20260506001904 | 27 | 156 | 11.3 | 24.1 | 0.00 | 0.00 | 0.00 | 53 | 1002.7 |
| 20260506001404 | 28 | 171 | 16.1 | 25.7 | 0.00 | 0.00 | 0.00 | 52 | 1002.6 |
| 20260506000904 | 28 | 145 | 14.5 | 22.5 | 0.00 | 0.00 | 0.00 | 52 | 1002.1 |
| 20260506000405 | 28 | 159 | 14.5 | 24.1 | 0.00 | 0.00 | 0.00 | 51 | 1002.4 |
| 20260505235904 | 28 | 139 | 14.5 | 24.1 | 0.00 | 0.00 | 0.00 | 51 | 1002.1 |
| 20260505235404 | 28 | 142 | 11.3 | 22.5 | 0.00 | 0.00 | 0.00 | 51 | 1002.0 |
| 20260505234904 | 28 | 148 | 14.5 | 22.5 | 0.00 | 0.00 | 0.00 | 51 | 1002.1 |
| 20260505234404 | 29 | 147 | 11.3 | 24.1 | 0.00 | 0.00 | 0.00 | 50 | 1002.3 |
| 20260505233904 | 29 | 141 | 14.5 | 24.1 | 0.00 | 0.00 | 0.00 | 50 | 1002.4 |
| 20260505233405 | 29 | 141 | 14.5 | 20.9 | 0.00 | 0.00 | 0.00 | 50 | 1002.1 |
| 20260505232404 | 30 | 159 | 14.5 | 20.9 | 0.00 | 0.00 | 0.00 | 50 | 1002.1 |
| 20260505231904 | 30 | 155 | 16.1 | 24.1 | 0.00 | 0.00 | 0.00 | 49 | 1002.3 |
| 20260505230904 | 30 | 159 | 14.5 | 20.9 | 0.00 | 0.00 | 0.00 | 49 | 1002.0 |
| 20260505230404 | 30 | 143 | 14.5 | 27.4 | 0.00 | 0.00 | 0.00 | 49 | 1001.9 |
| 20260505225404 | 30 | 150 | 17.7 | 27.4 | 0.00 | 0.00 | 0.00 | 49 | 1001.9 |
| 20260505224905 | 30 | 145 | 16.1 | 25.7 | 0.00 | 0.00 | 0.00 | 49 | 1001.8 |
| 20260505224404 | 30 | 145 | 14.5 | 22.5 | 0.00 | 0.00 | 0.00 | 49 | 1001.7 |
| 20260505223904 | 30 | 154 | 14.5 | 24.1 | 0.00 | 0.00 | 0.00 | 48 | 1001.6 |
| 20260505223404 | 30 | 158 | 12.9 | 25.7 | 0.00 | 0.00 | 0.00 | 48 | 1001.7 |
| 20260505222904 | 30 | 151 | 19.3 | 32.2 | 0.00 | 0.00 | 0.00 | 48 | 1001.7 |
| 20260505220904 | 30 | 116 | 14.5 | 25.7 | 0.00 | 0.00 | 0.00 | 48 | 1001.7 |
| 20260505220404 | 30 | 144 | 14.5 | 27.4 | 0.00 | 0.00 | 0.00 | 48 | 1001.8 |
| 20260505215904 | 30 | 160 | 12.9 | 27.4 | 0.00 | 0.00 | 0.00 | 48 | 1001.8 |
| 20260505215404 | 30 | 163 | 14.5 | 27.4 | 0.00 | 0.00 | 0.00 | 48 | 1001.8 |
| 20260505214908 | 30 | 160 | 16.1 | 27.4 | 0.00 | 0.00 | 0.00 | 49 | 1001.8 |
| 20260505214405 | 30 | 147 | 16.1 | 27.4 | 0.00 | 0.00 | 0.00 | 48 | 1001.8 |
| 20260505213904 | 30 | 170 | 17.7 | 29.0 | 0.00 | 0.00 | 0.00 | 49 | 1001.8 |
| 20260505213404 | 30 | 170 | 16.1 | 27.4 | 0.00 | 0.00 | 0.00 | 49 | 1002.0 |
| 20260505212404 | 30 | 146 | 16.1 | 27.4 | 0.00 | 0.00 | 0.00 | 48 | 1002.0 |
| 20260505211905 | 30 | 168 | 14.5 | 32.2 | 0.00 | 0.00 | 0.00 | 49 | 1002.1 |
| 20260505211404 | 30 | 166 | 14.5 | 25.7 | 0.00 | 0.00 | 0.00 | 49 | 1002.0 |
| 20260505210904 | 30 | 140 | 17.7 | 25.7 | 0.00 | 0.00 | 0.00 | 48 | 1002.1 |
| 20260505210404 | 30 | 183 | 16.1 | 24.1 | 0.00 | 0.00 | 0.00 | 48 | 1002.1 |
| 20260505205905 | 30 | 179 | 16.1 | 29.0 | 0.00 | 0.00 | 0.00 | 49 | 1002.3 |
| 20260505204904 | 30 | 176 | 11.3 | 25.7 | 0.00 | 0.00 | 0.00 | 49 | 1002.4 |
| 20260505204404 | 30 | 159 | 14.5 | 25.7 | 0.00 | 0.00 | 0.00 | 48 | 1002.4 |
| 20260505203904 | 30 | 190 | 16.1 | 29.0 | 0.00 | 0.00 | 0.00 | 49 | 1002.5 |
| 20260505203405 | 30 | 146 | 22.5 | 33.8 | 0.00 | 0.00 | 0.00 | 49 | 1002.6 |
| 20260505202904 | 30 | 161 | 11.3 | 27.4 | 0.00 | 0.00 | 0.00 | 49 | 1002.6 |
| 20260505202404 | 30 | 171 | 19.3 | 29.0 | 0.00 | 0.00 | 0.00 | 49 | 1002.7 |
| 20260505201907 | 30 | 187 | 16.1 | 27.4 | 0.00 | 0.00 | 0.00 | 50 | 1002.7 |
| 20260505201404 | 29 | 145 | 19.3 | 32.2 | 0.00 | 0.00 | 0.00 | 49 | 1002.6 |
| 20260505200904 | 29 | 164 | 16.1 | 25.7 | 0.00 | 0.00 | 0.00 | 50 | 1002.8 |
| 20260505195404 | 29 | 169 | 20.9 | 32.2 | 0.00 | 0.00 | 0.00 | 51 | 1002.8 |
| 20260505194904 | 29 | 170 | 16.1 | 29.0 | 0.00 | 0.00 | 0.00 | 50 | 1002.7 |
| 20260505194405 | 28 | 169 | 17.7 | 33.8 | 0.00 | 0.00 | 0.00 | 50 | 1002.9 |
| 20260505193903 | 28 | 169 | 12.9 | 32.2 | 0.00 | 0.00 | 0.00 | 51 | 1002.8 |
| 20260505193404 | 28 | 164 | 20.9 | 35.4 | 0.00 | 0.00 | 0.00 | 50 | 1002.9 |
| 20260505192904 | 28 | 180 | 16.1 | 32.2 | 0.00 | 0.00 | 0.00 | 50 | 1002.9 |
| 20260505191907 | 28 | 149 | 20.9 | 29.0 | 0.00 | 0.00 | 0.00 | 52 | 1002.9 |
| 20260505191404 | 28 | 151 | 16.1 | 32.2 | 0.00 | 0.00 | 0.00 | 51 | 1002.8 |
| 20260505190404 | 28 | 168 | 17.7 | 32.2 | 0.00 | 0.00 | 0.00 | 50 | 1003.2 |
| 20260505185904 | 28 | 181 | 19.3 | 32.2 | 0.00 | 0.00 | 0.00 | 51 | 1003.1 |
| 20260505185404 | 27 | 166 | 19.3 | 27.4 | 0.00 | 0.00 | 0.00 | 51 | 1003.2 |
| 20260505184904 | 27 | 157 | 19.3 | 29.0 | 0.00 | 0.00 | 0.00 | 52 | 1003.2 |
| 20260505184404 | 27 | 186 | 16.1 | 33.8 | 0.00 | 0.00 | 0.00 | 51 | 1003.3 |
| 20260505183904 | 27 | 150 | 19.3 | 32.2 | 0.00 | 0.00 | 0.00 | 51 | 1003.2 |
| 20260505182404 | 27 | 173 | 19.3 | 33.8 | 0.00 | 0.00 | 0.00 | 51 | 1003.4 |
| 20260505181904 | 27 | 157 | 16.1 | 29.0 | 0.00 | 0.00 | 0.00 | 52 | 1003.5 |
| 20260505181404 | 27 | 169 | 20.9 | 29.0 | 0.00 | 0.00 | 0.00 | 52 | 1003.4 |
| 20260505180904 | 27 | 182 | 17.7 | 32.2 | 0.00 | 0.00 | 0.00 | 52 | 1003.3 |
| 20260505180404 | 27 | 193 | 19.3 | 33.8 | 0.00 | 0.00 | 0.00 | 51 | 1003.4 |
| 20260505175904 | 27 | 186 | 19.3 | 33.8 | 0.00 | 0.00 | 0.00 | 52 | 1003.5 |
| 20260505174905 | 27 | 176 | 22.5 | 32.2 | 0.00 | 0.00 | 0.00 | 52 | 1003.5 |
| 20260505173404 | 27 | 166 | 22.5 | 33.8 | 0.00 | 0.00 | 0.00 | 52 | 1003.4 |
| 20260505172904 | 27 | 174 | 20.9 | 35.4 | 0.00 | 0.00 | 0.00 | 52 | 1003.5 |
| 20260505172404 | 27 | 169 | 22.5 | 32.2 | 0.00 | 0.00 | 0.00 | 52 | 1003.4 |
| 20260505171904 | 27 | 178 | 19.3 | 35.4 | 0.00 | 0.00 | 0.00 | 51 | 1003.5 |
| 20260505171404 | 27 | 163 | 24.1 | 40.2 | 0.00 | 0.00 | 0.00 | 52 | 1003.5 |
| 20260505170404 | 26 | 187 | 17.7 | 37.0 | 0.00 | 0.00 | 0.00 | 53 | 1003.6 |
| 20260505165903 | 26 | 159 | 20.9 | 35.4 | 0.00 | 0.00 | 0.00 | 52 | 1003.5 |
| 20260505165405 | 26 | 178 | 19.3 | 29.0 | 0.00 | 0.00 | 0.00 | 53 | 1003.5 |
| 20260505164904 | 26 | 178 | 17.7 | 32.2 | 0.00 | 0.00 | 0.00 | 53 | 1003.7 |
| 20260505164404 | 26 | 179 | 22.5 | 41.8 | 0.00 | 0.00 | 0.00 | 52 | 1003.7 |
| 20260505162904 | 26 | 186 | 22.5 | 33.8 | 0.00 | 0.00 | 0.00 | 53 | 1003.5 |
| 20260505162404 | 26 | 179 | 24.1 | 35.4 | 0.00 | 0.00 | 0.00 | 53 | 1003.4 |
| 20260505161403 | 25 | 165 | 22.5 | 37.0 | 0.00 | 0.00 | 0.00 | 54 | 1003.4 |
| 20260505160904 | 25 | 179 | 16.1 | 40.2 | 0.00 | 0.00 | 0.00 | 55 | 1003.3 |
| 20260505160404 | 25 | 175 | 20.9 | 33.8 | 0.00 | 0.00 | 0.00 | 55 | 1003.4 |
| 20260505152904 | 24 | 167 | 22.5 | 35.4 | 0.00 | 0.00 | 0.00 | 57 | 1003.6 |
| 20260505152403 | 24 | 178 | 19.3 | 40.2 | 0.00 | 0.00 | 0.00 | 57 | 1003.6 |
| 20260505151904 | 24 | 184 | 16.1 | 37.0 | 0.00 | 0.00 | 0.00 | 57 | 1003.6 |
| 20260505150904 | 23 | 174 | 16.1 | 27.4 | 0.00 | 0.00 | 0.00 | 57 | 1003.5 |
| 20260505150403 | 23 | 183 | 22.5 | 33.8 | 0.00 | 0.00 | 0.00 | 57 | 1003.4 |
| 20260505140403 | 22 | 164 | 16.1 | 32.2 | 0.00 | 0.00 | 0.00 | 60 | 1003.4 |
| 20260505124904 | 22 | 156 | 16.1 | 29.0 | 0.00 | 0.00 | 0.00 | 61 | 1003.2 |
| 20260505124404 | 22 | 155 | 14.5 | 32.2 | 0.00 | 0.00 | 0.00 | 61 | 1003.1 |
| 20260505123905 | 22 | 143 | 14.5 | 25.7 | 0.00 | 0.00 | 0.00 | 61 | 1003.0 |
| 20260505123404 | 22 | 163 | 16.1 | 25.7 | 0.00 | 0.00 | 0.00 | 61 | 1002.9 |
| 20260505121904 | 21 | 164 | 16.1 | 32.2 | 0.00 | 0.00 | 0.00 | 61 | 1002.8 |
| 20260505121404 | 21 | 165 | 17.7 | 32.2 | 0.00 | 0.00 | 0.00 | 61 | 1002.8 |
| 20260505120904 | 21 | 162 | 14.5 | 32.2 | 0.00 | 0.00 | 0.00 | 61 | 1002.8 |
| 20260505120403 | 21 | 169 | 16.1 | 25.7 | 0.00 | 0.00 | 0.00 | 61 | 1002.6 |
| 20260505115904 | 21 | 163 | 16.1 | 27.4 | 0.00 | 0.00 | 0.00 | 61 | 1002.5 |
| 20260505115404 | 21 | 157 | 17.7 | 33.8 | 0.00 | 0.00 | 0.00 | 61 | 1002.6 |
| 20260505114904 | 21 | 146 | 16.1 | 32.2 | 0.00 | 0.00 | 0.00 | 61 | 1002.5 |
| 20260505114405 | 21 | 153 | 17.7 | 25.7 | 0.00 | 0.00 | 0.00 | 61 | 1002.6 |
| 20260505113904 | 21 | 178 | 14.5 | 35.4 | 0.00 | 0.00 | 0.00 | 61 | 1002.6 |
| 20260505113404 | 21 | 175 | 19.3 | 32.2 | 0.00 | 0.00 | 0.00 | 61 | 1002.5 |
| 20260505112904 | 21 | 180 | 19.3 | 29.0 | 0.00 | 0.00 | 0.00 | 61 | 1002.5 |
| 20260505111903 | 21 | 170 | 17.7 | 29.0 | 0.00 | 0.00 | 0.00 | 61 | 1002.6 |
| 20260505111403 | 21 | 169 | 19.3 | 27.4 | 0.00 | 0.00 | 0.00 | 61 | 1002.6 |
| 20260505110904 | 21 | 173 | 16.1 | 27.4 | 0.00 | 0.00 | 0.00 | 61 | 1002.6 |
| 20260505110404 | 21 | 158 | 19.3 | 32.2 | 0.00 | 0.00 | 0.00 | 61 | 1002.6 |
| 20260505101904 | 21 | 155 | 14.5 | 27.4 | 0.00 | 0.00 | 0.00 | 61 | 1002.6 |
| 20260505100403 | 21 | 163 | 16.1 | 32.2 | 0.00 | 0.00 | 0.00 | 61 | 1002.8 |
| 20260505095903 | 21 | 156 | 16.1 | 37.0 | 0.00 | 0.00 | 0.00 | 61 | 1002.8 |
| 20260505095403 | 21 | 151 | 19.3 | 32.2 | 0.00 | 0.00 | 0.00 | 61 | 1002.9 |
| 20260505094904 | 21 | 159 | 17.7 | 25.7 | 0.00 | 0.00 | 0.00 | 61 | 1003.0 |
| 20260505094405 | 21 | 157 | 14.5 | 27.4 | 0.00 | 0.00 | 0.00 | 61 | 1003.0 |
| 20260505093403 | 21 | 168 | 16.1 | 38.6 | 0.00 | 0.00 | 0.00 | 61 | 1003.0 |
| 20260505092904 | 21 | 164 | 16.1 | 32.2 | 0.00 | 0.00 | 0.00 | 61 | 1002.9 |
| 20260505092404 | 21 | 158 | 14.5 | 32.2 | 0.00 | 0.00 | 0.00 | 61 | 1003.0 |
| 20260505091908 | 21 | 159 | 19.3 | 32.2 | 0.00 | 0.00 | 0.00 | 61 | 1002.9 |
| 20260505091404 | 21 | 166 | 17.7 | 37.0 | 0.00 | 0.00 | 0.00 | 61 | 1003.0 |
| 20260505090904 | 21 | 165 | 17.7 | 32.2 | 0.00 | 0.00 | 0.00 | 61 | 1002.9 |
| 20260505090404 | 21 | 162 | 22.5 | 35.4 | 0.00 | 0.00 | 0.00 | 61 | 1003.0 |
| 20260505085904 | 21 | 172 | 20.9 | 32.2 | 0.00 | 0.00 | 0.00 | 61 | 1002.9 |
| 20260505085403 | 21 | 177 | 19.3 | 38.6 | 0.00 | 0.00 | 0.00 | 61 | 1002.9 |
| 20260505084404 | 21 | 146 | 19.3 | 29.0 | 0.00 | 0.00 | 0.00 | 61 | 1002.8 |
| 20260505083904 | 21 | 147 | 19.3 | 32.2 | 0.00 | 0.00 | 0.00 | 61 | 1003.0 |
| 20260505083404 | 21 | 164 | 19.3 | 32.2 | 0.00 | 0.00 | 0.00 | 61 | 1003.0 |
| 20260505082904 | 21 | 155 | 19.3 | 35.4 | 0.00 | 0.00 | 0.00 | 61 | 1003.1 |
| 20260505082403 | 21 | 153 | 16.1 | 33.8 | 0.00 | 0.00 | 0.00 | 61 | 1003.0 |
| 20260505081404 | 21 | 159 | 16.1 | 25.7 | 0.00 | 0.00 | 0.00 | 61 | 1003.1 |
| 20260505080904 | 21 | 156 | 19.3 | 29.0 | 0.00 | 0.00 | 0.00 | 60 | 1003.1 |
| 20260505080404 | 21 | 170 | 20.9 | 32.2 | 0.00 | 0.00 | 0.00 | 60 | 1003.2 |
| 20260505075404 | 21 | 156 | 16.1 | 27.4 | 0.00 | 0.00 | 0.00 | 60 | 1003.4 |
| 20260505074904 | 21 | 157 | 17.7 | 25.7 | 0.00 | 0.00 | 0.00 | 60 | 1003.5 |
| 20260505074403 | 21 | 166 | 16.1 | 29.0 | 0.00 | 0.00 | 0.00 | 60 | 1003.5 |
| 20260505073904 | 21 | 163 | 19.3 | 38.6 | 0.00 | 0.00 | 0.00 | 60 | 1003.6 |
| 20260505072904 | 21 | 150 | 17.7 | 33.8 | 0.00 | 0.00 | 0.00 | 60 | 1003.8 |
| 20260505072403 | 21 | 159 | 16.1 | 29.0 | 0.00 | 0.00 | 0.00 | 60 | 1003.9 |
| 20260505071904 | 21 | 152 | 17.7 | 29.0 | 0.00 | 0.00 | 0.00 | 60 | 1003.9 |
| 20260505071404 | 21 | 154 | 16.1 | 33.8 | 0.00 | 0.00 | 0.00 | 60 | 1003.9 |
| 20260505070404 | 21 | 159 | 19.3 | 32.2 | 0.00 | 0.00 | 0.00 | 60 | 1004.0 |
| 20260505065904 | 21 | 163 | 17.7 | 32.2 | 0.00 | 0.00 | 0.00 | 60 | 1004.1 |
| 20260505065403 | 21 | 151 | 17.7 | 32.2 | 0.00 | 0.00 | 0.00 | 60 | 1004.1 |
| 20260505064904 | 21 | 174 | 16.1 | 29.0 | 0.00 | 0.00 | 0.00 | 60 | 1004.2 |
| 20260505064404 | 21 | 157 | 16.1 | 33.8 | 0.00 | 0.00 | 0.00 | 60 | 1004.2 |
| 20260505063904 | 21 | 161 | 17.7 | 29.0 | 0.00 | 0.00 | 0.00 | 59 | 1004.2 |
| 20260505063404 | 21 | 170 | 16.1 | 38.6 | 0.00 | 0.00 | 0.00 | 59 | 1004.2 |
| 20260505062904 | 21 | 152 | 16.1 | 32.2 | 0.00 | 0.00 | 0.00 | 59 | 1004.2 |
| 20260505062403 | 21 | 156 | 17.7 | 29.0 | 0.00 | 0.00 | 0.00 | 59 | 1004.3 |
| 20260505061904 | 21 | 153 | 16.1 | 29.0 | 0.00 | 0.00 | 0.00 | 59 | 1004.4 |
| 20260505061404 | 22 | 148 | 20.9 | 32.2 | 0.00 | 0.00 | 0.00 | 59 | 1004.4 |
| 20260505060904 | 22 | 156 | 16.1 | 27.4 | 0.00 | 0.00 | 0.00 | 59 | 1004.4 |
| 20260505060404 | 22 | 164 | 17.7 | 29.0 | 0.00 | 0.00 | 0.00 | 58 | 1004.5 |
| 20260505055904 | 22 | 161 | 16.1 | 29.0 | 0.00 | 0.00 | 0.00 | 58 | 1004.4 |
| 20260505055403 | 22 | 148 | 19.3 | 27.4 | 0.00 | 0.00 | 0.00 | 58 | 1004.4 |
| 20260505054903 | 22 | 160 | 14.5 | 32.2 | 0.00 | 0.00 | 0.00 | 58 | 1004.5 |
| 20260505053903 | 22 | 152 | 20.9 | 33.8 | 0.00 | 0.00 | 0.00 | 57 | 1004.5 |
| 20260505052904 | 22 | 147 | 16.1 | 27.4 | 0.00 | 0.00 | 0.00 | 57 | 1004.6 |
| 20260505052404 | 22 | 164 | 16.1 | 32.2 | 0.00 | 0.00 | 0.00 | 57 | 1004.7 |
| 20260505051904 | 22 | 160 | 14.5 | 29.0 | 0.00 | 0.00 | 0.00 | 57 | 1004.9 |
| 20260505051404 | 22 | 160 | 14.5 | 29.0 | 0.00 | 0.00 | 0.00 | 57 | 1004.8 |
| 20260505050403 | 22 | 152 | 16.1 | 25.7 | 0.00 | 0.00 | 0.00 | 56 | 1004.8 |
| 20260505041404 | 22 | 146 | 14.5 | 27.4 | 0.00 | 0.00 | 0.00 | 55 | 1005.1 |
| 20260505040405 | 22 | 153 | 11.3 | 24.1 | 0.00 | 0.00 | 0.00 | 55 | 1005.1 |
| 20260505035904 | 22 | 132 | 14.5 | 25.7 | 0.00 | 0.00 | 0.00 | 54 | 1005.1 |
| 20260505035405 | 22 | 153 | 11.3 | 22.5 | 0.00 | 0.00 | 0.00 | 54 | 1005.0 |
| 20260505034905 | 23 | 149 | 12.9 | 24.1 | 0.00 | 0.00 | 0.00 | 54 | 1004.8 |
| 20260505034404 | 23 | 144 | 14.5 | 32.2 | 0.00 | 0.00 | 0.00 | 54 | 1004.8 |
| 20260505033405 | 23 | 149 | 16.1 | 27.4 | 0.00 | 0.00 | 0.00 | 54 | 1005.0 |
| 20260505032905 | 23 | 147 | 12.9 | 24.1 | 0.00 | 0.00 | 0.00 | 54 | 1004.9 |
| 20260505031904 | 23 | 145 | 14.5 | 22.5 | 0.00 | 0.00 | 0.00 | 53 | 1005.0 |
| 20260505031405 | 23 | 155 | 14.5 | 32.2 | 0.00 | 0.00 | 0.00 | 53 | 1005.1 |
| 20260505030405 | 23 | 156 | 14.5 | 33.8 | 0.00 | 0.00 | 0.00 | 53 | 1005.1 |
| 20260505025904 | 23 | 149 | 12.9 | 24.1 | 0.00 | 0.00 | 0.00 | 53 | 1005.2 |
| 20260505025405 | 23 | 157 | 11.3 | 25.7 | 0.00 | 0.00 | 0.00 | 53 | 1005.1 |
| 20260505024905 | 23 | 142 | 9.7 | 24.1 | 0.00 | 0.00 | 0.00 | 53 | 1005.0 |
| 20260505024405 | 23 | 151 | 9.7 | 22.5 | 0.00 | 0.00 | 0.00 | 53 | 1005.0 |
| 20260505023905 | 23 | 138 | 14.5 | 22.5 | 0.00 | 0.00 | 0.00 | 52 | 1004.8 |
| 20260505023405 | 23 | 149 | 9.7 | 27.4 | 0.00 | 0.00 | 0.00 | 52 | 1004.5 |
| 20260505022404 | 23 | 153 | 11.3 | 19.3 | 0.00 | 0.00 | 0.00 | 52 | 1004.8 |
| 20260505021905 | 23 | 148 | 11.3 | 22.5 | 0.00 | 0.00 | 0.00 | 52 | 1004.7 |
| 20260505021405 | 23 | 148 | 11.3 | 24.1 | 0.00 | 0.00 | 0.00 | 52 | 1004.7 |
| 20260505020904 | 23 | 139 | 11.3 | 20.9 | 0.00 | 0.00 | 0.00 | 52 | 1004.6 |
| 20260505020405 | 23 | 146 | 11.3 | 19.3 | 0.00 | 0.00 | 0.00 | 52 | 1004.7 |
| 20260505015904 | 23 | 144 | 12.9 | 24.1 | 0.00 | 0.00 | 0.00 | 52 | 1004.6 |
| 20260505015405 | 23 | 160 | 9.7 | 22.5 | 0.00 | 0.00 | 0.00 | 52 | 1004.7 |
| 20260505013904 | 23 | 151 | 12.9 | 24.1 | 0.00 | 0.00 | 0.00 | 51 | 1004.6 |
| 20260505013405 | 24 | 147 | 12.9 | 24.1 | 0.00 | 0.00 | 0.00 | 51 | 1004.6 |
| 20260505012905 | 24 | 148 | 12.9 | 22.5 | 0.00 | 0.00 | 0.00 | 51 | 1004.7 |
| 20260505011905 | 24 | 154 | 11.3 | 25.7 | 0.00 | 0.00 | 0.00 | 51 | 1004.7 |
| 20260505011405 | 24 | 154 | 16.1 | 22.5 | 0.00 | 0.00 | 0.00 | 51 | 1004.7 |
| 20260505010905 | 24 | 158 | 11.3 | 22.5 | 0.00 | 0.00 | 0.00 | 50 | 1004.7 |
| 20260505010405 | 25 | 153 | 16.1 | 29.0 | 0.00 | 0.00 | 0.00 | 50 | 1004.6 |
| 20260505005908 | 25 | 150 | 12.9 | 25.7 | 0.00 | 0.00 | 0.00 | 50 | 1004.7 |
| 20260505005405 | 25 | 150 | 11.3 | 32.2 | 0.00 | 0.00 | 0.00 | 50 | 1004.6 |